Content
SEND FEEDBACK

Daily
Averages
Monthly
Summary
France

LE HAVRE, FRANCE


Home > Europe > France
Elevation: 103 meters     Latitude: 49 31N     Longitude: 000 04E

WEATHER
 
SELECT A DAY
Number of Records: 177,058;   Date Range: 3/4/97 - 9/21/14
 
SHARE

PRINT THIS DATA

[ ← Previous Day ]
WEATHER ALMANAC - 24 JANUARY, 2013
[ Next Day → ]
[ °F ]   °C
Weather ElementAverageHighLow
Temperature1 °C3 °C (2:00 pm)-2 °C (10:30 pm)
Dewpoint-1.1 °C2 °C (12:30 am)-5 °C (10:00 pm)
Humidity86.6 %100 % (12:30 am)65 % (2:30 pm)
Barometer1013.2 hPa1020 hPa (11:30 pm)1006.1 hPa (12:30 am)
Wind Speed14.5 km/h22.2 km/h (11:00 am)
Weather ElementAverage
Visibility6.8 km
Wind DirectionENE (62.1 °)

Weather ElementTotal
Precipitation---
Heating Degree Days17.8 (Base 18.3)
Averaged from 47 records on 24 January, 2013
WEATHER CONDITIONS BREAKOUT
WIND DIRECTION BREAKOUT
WEATHER BY HOUR - 24 JANUARY, 2013
[ °F ]   °C
Local TimeTemperatureDewpointHumidityBarometerVisibilityWind DirectionWind SpeedGust SpeedPrecipitationEventsConditions
12:30 AM2 °C2 °C100 %1006.1 hPa6 kmEast (90°)7.4 km/hOvercast
1:00 AM2 °C2 °C100 %1006.1 hPa5 kmEast (80°)11.1 km/hOvercast
1:30 AM2 °C2 °C100 %1006.1 hPa5 kmEast (80°)11.1 km/hOvercast
2:00 AM2 °C2 °C100 %1006.1 hPaEast (90°)11.1 km/hOvercast
2:30 AM2 °C2 °C100 %1006.1 hPa5 kmEast (80°)13 km/hOvercast
3:00 AM2 °C2 °C100 %1007.1 hPa4.5 kmEast (90°)13 km/hOvercast
3:30 AM2 °C2 °C100 %1007.1 hPaEast (90°)11.1 km/hOvercast
4:00 AM2 °C1 °C93 %1007.1 hPaEast (80°)13 km/hRainLight Rain
4:30 AM2 °C1 °C93 %1008.1 hPa1.9 kmEast (90°)11.1 km/hRainLight Rain
5:00 AM2 °C1 °C93 %1008.1 hPa1.9 kmEast (90°)9.3 km/hOvercast
5:30 AM2 °C1 °C93 %1008.1 hPa1.9 kmEast (80°)11.1 km/hOvercast
6:00 AM2 °C1 °C93 %1009.1 hPa5 kmEast (80°)13 km/hMostly Cloudy
6:30 AM1 °C1 °C100 %1009.1 hPaEast (80°)11.1 km/hOvercast
7:00 AM1 °C1 °C100 %1009.1 hPa4.5 kmENE (70°)9.3 km/hRainLight Rain
7:30 AM1 °C1 °C100 %1010.2 hPaENE (60°)11.1 km/hRainLight Rain
8:00 AM1 °C1 °C100 %1010.2 hPa5 kmENE (70°)11.1 km/hRainLight Rain
8:30 AM1 °C1 °C100 %1011.2 hPa6 kmEast (80°)9.3 km/hOvercast
9:00 AM1 °C1 °C100 %1011.2 hPa6.9 kmENE (60°)9.3 km/hOvercast
9:30 AM2 °C1 °C93 %1012.2 hPa6.9 kmNE (50°)13 km/hMostly Cloudy
10:00 AM2 °C1 °C93 %1012.2 hPaNE (50°)9.3 km/hOvercast
10:30 AM2 °C1 °C93 %1013.2 hPaNE (50°)18.5 km/hOvercast
11:00 AM2 °C0 °C87 %1013.2 hPaNE (50°)22.2 km/hOvercast
11:30 AM1 °C-1 °C87 %1014.2 hPa5 kmENE (60°)18.5 km/hOvercast
12:00 PM1 °C-2 °C81 %1014.2 hPa6.9 kmENE (70°)18.5 km/hOvercast
12:30 PM2 °C-2 °C75 %1014.2 hPa10 kmENE (60°)18.5 km/hOvercast
1:00 PM2 °C-3 °C70 %1015.2 hPa10 kmENE (60°)20.4 km/hOvercast
1:30 PM2 °C-3 °C70 %1014.2 hPa10 kmENE (60°)20.4 km/hOvercast
2:00 PM3 °C-2 °C70 %1015.2 hPa10 kmENE (60°)22.2 km/hOvercast
2:30 PM3 °C-3 °C65 %1015.2 hPa10 kmNE (50°)22.2 km/hOvercast
3:00 PM2 °C-3 °C70 %1015.2 hPa10 kmNNE (20°)20.4 km/hMostly Cloudy
3:30 PM2 °C-4 °C65 %1015.2 hPa10 kmNNE (30°)18.5 km/hPartly Cloudy
4:00 PM2 °C-3 °C70 %1016.3 hPa10 kmNNE (30°)20.4 km/h
4:30 PM2 °C-4 °C65 %1016.3 hPa10 kmNE (40°)20.4 km/h
5:00 PM1 °C-3 °C75 %1016.3 hPa10 kmNNE (30°)18.5 km/h
5:30 PM0 °C-3 °C80 %1017.3 hPa6 kmNNE (30°)16.7 km/h
6:00 PM0 °C-3 °C80 %1017.3 hPa5 kmNNE (30°)14.8 km/hMist
6:30 PM-1 °C-3 °C86 %1017.9 hPaNNE (30°)18.5 km/hMist
7:00 PM-1 °C-3 °C86 %1017.9 hPaNE (40°)14.8 km/hMist
7:30 PM-1 °C-3 °C86 %1017.9 hPa5 kmNE (50°)11.1 km/hMist
8:00 PM-1 °C-3 °C86 %1017.9 hPaENE (60°)13 km/hMist
8:30 PM-1 °C-3 °C86 %1019 hPaENE (70°)11.1 km/hMist
9:00 PM-1 °C-3 °C86 %1019 hPa4.5 kmENE (60°)14.8 km/hMist
9:30 PM-1 °C-4 °C80 %1019 hPa5 kmENE (60°)16.7 km/hMist
10:00 PM-1 °C-5 °C75 %1019 hPa6.9 kmENE (70°)13 km/h
10:30 PM-2 °C-4 °C86 %1019 hPa6.9 kmENE (70°)11.1 km/h
11:00 PM-2 °C-5 °C80 %1019 hPa10 kmEast (80°)14.8 km/h
11:30 PM-2 °C-5 °C80 %1020 hPa10 kmENE (60°)9.3 km/h
Hourly data recorded from LFOH, located 0 kilometers away from Le Havre, France







STORIES FROM OUR PARTNERS